Location: Deneb Observatory
(47.2267°N, 100.4953°W)
Time: 10:55:16
(UTC-05:00)

Iridium 66 - Visible Passes

Search period start: 01 August 2014 00:00
Search period end: 11 August 2014 00:00
Orbit: 776 x 779 km, 86.4° (Epoch: 31 July)

Date Brightness Start Highest point End Pass type
(mag) Time Alt. Az. Time Alt. Az. Time Alt. Az.
01 Aug 6.2 01:06:59 54° ESE 01:07:34 57° E 01:12:41 10° N visible
01 Aug 7.7 02:47:27 19° W 02:48:42 20° WNW 02:52:33 10° NNW visible
02 Aug 6.9 00:33:33 32° E 00:34:12 33° E 00:38:49 10° NNE visible
02 Aug 7.0 02:14:01 32° W 02:14:52 34° WNW 02:19:37 10° NNW visible
03 Aug 7.6 00:00:07 19° E 00:00:57 20° ENE 00:04:36 10° NNE visible
03 Aug 6.2 01:40:35 55° WSW 01:41:11 59° W 01:46:21 10° N visible
03 Aug 8.2 23:26:41 10° E 23:27:49 11° ENE 23:29:17 10° NE visible
04 Aug 5.9 01:07:09 73° SSE 01:07:37 81° E 01:12:51 10° N visible
04 Aug 8.1 02:47:37 14° W 02:49:02 15° WNW 02:51:58 10° NW visible
05 Aug 6.4 00:33:42 45° ESE 00:34:10 46° E 00:39:08 10° NNE visible
05 Aug 7.5 02:14:10 24° W 02:15:07 25° WNW 02:19:24 10° NNW visible
06 Aug 7.2 00:00:15 26° E 00:00:51 27° E 00:05:10 10° NNE visible
06 Aug 6.7 01:40:43 40° W 01:41:21 42° W 01:46:19 10° N visible
06 Aug 7.8 23:26:48 15° E 23:27:39 16° ENE 23:30:41 10° NE visible
07 Aug 6.0 01:07:16 69° SW 01:07:42 74° W 01:12:56 10° N visible
07 Aug 8.4 02:48:24 10° WNW 02:49:25 11° WNW 02:50:27 10° NW visible
08 Aug 6.0 00:33:48 62° ESE 00:34:11 65° E 00:39:22 10° N visible
08 Aug 7.9 02:14:16 17° W 02:15:25 18° WNW 02:19:00 10° NNW visible
09 Aug 6.7 00:00:20 36° E 00:00:48 37° E 00:05:33 10° NNE visible
09 Aug 7.3 01:40:48 29° W 01:41:34 31° WNW 01:46:10 10° NNW visible
09 Aug 7.4 23:26:52 21° E 23:27:31 22° E 23:31:25 10° NNE visible
10 Aug 6.4 01:07:20 50° WSW 01:07:51 52° W 01:12:57 10° N visible
10 Aug 8.0 22:53:23 12° E 22:54:22 13° ENE 22:56:32 10° NE visible
